Location: Clanezzo
(45.7500°N, 9.6000°E)
Time: 05:11:14
(UTC+00:00)

NANOSAT C BR1 - Visible Passes

Search period start: 28 June 2022 00:00
Search period end: 08 July 2022 00:00
Orbit: 583 x 601 km, 98.0° (Epoch: 27 June)

Date Brightness Start Highest point End Pass type
(mag) Time Alt. Az. Time Alt. Az. Time Alt. Az.
28 Jun ? 00:47:29 10° NE 00:51:04 26° E 00:53:22 17° SE visible
28 Jun ? 02:22:54 10° N 02:26:36 30° WNW 02:29:57 12° SW visible
29 Jun ? 00:56:03 10° NNE 00:59:51 32° E 01:02:11 19° SSE visible
29 Jun ? 02:31:48 10° N 02:35:16 25° WNW 02:38:43 10° WSW visible
30 Jun ? 01:04:39 10° NNE 01:08:38 40° E 01:11:00 21° SSE visible
30 Jun ? 02:40:45 10° NNW 02:43:55 21° WNW 02:47:06 10° WSW visible
01 Jul ? 01:13:17 10° NNE 01:17:23 49° E 01:19:48 22° SSE visible
01 Jul ? 02:49:45 10° NNW 02:52:34 18° WNW 02:55:24 10° WSW visible
02 Jul ? 01:21:57 10° NNE 01:26:08 62° ESE 01:28:37 23° S visible
03 Jul ? 01:30:38 10° NNE 01:34:52 77° ESE 01:37:24 24° S visible
04 Jul ? 01:39:21 10° NNE 01:43:35 86° WNW 01:46:12 23° SSW visible
05 Jul ? 00:14:44 10° ENE 00:16:17 12° E 00:17:49 10° ESE visible
05 Jul ? 01:48:05 10° N 01:52:17 70° WNW 01:54:59 22° SSW visible
06 Jul ? 00:22:44 10° ENE 00:25:05 14° E 00:27:10 11° ESE visible
06 Jul ? 01:56:50 10° N 02:00:59 56° WNW 02:03:46 20° SW visible
07 Jul ? 00:31:00 10° NE 00:33:53 18° E 00:35:57 13° SE visible
07 Jul ? 02:05:36 10° N 02:09:39 46° WNW 02:12:32 18° SW visible
